Location: Gleizolles
(44.4833°N, 6.7667°E)
Time: 00:34:34
(UTC+00:00)

S-56A Canister/Altair - Pass Details

Date: 28 June 2024
Orbit: 638 x 2488 km, 38.9° (Epoch: 24 July)

Event Time Altitude Azimuth Distance (km) Brightness Sun altitude
Rises 20:02:32 0° 253° (WSW) 3,784 11.5 -6.5°
Reaches altitude 10° 20:04:51 10° 249° (WSW) 3,025 11.0 -6.8°
Maximum altitude 20:12:20 61° 171° (S) 1,672 9.0 -7.8°
Drops below altitude 10° 20:23:44 10° 95° (E) 4,488 11.0 -9.3°
Sets 20:27:54 0° 93° (E) 5,724 11.5 -9.8°
